SL-8 R/B

Satellite information

Favourite Embed

Satellite Type and Status

ROCKET BODYIN ORBIT

Key statistics

Satellite SL-8 R/B at a glance.

Uptime

10257

Days in orbit

Revolutions

≈ 13.8

Per day

Orbit

LEO

Low Earth Orbit

Inclination

82.9

Latest

Satellite identification and parameters

Extended collection of information and parameters for SL-8 R/B.

Object identification

Identified? True

Debris? False

Object name: SL-8 R/B

International designator: 1997-052C

Object number (NORAD): 24955

Object ID (CCSDS): 24955

Country: COMMONWEALTH OF INDEPENDENT STATES (CIS)

Current information (Y/N): Y

RCS size: LARGE

Orbital parameters

Period: 104.204 minutes

Inclination: 82.9187 deg

SMA: 7335.293 km

Apoapsis: 978.914 km

Periapsis: 935.403 km

RAAN: 140.9694 deg

Eccentricy: 0.0029659

Argument of periapsis: 174.2266 deg

Mean anomaly: 185.9242 deg

Mean motion: 13.81899717 rev/day

Mean motion (dot): 0.00000096 rev/day2

B* drag term: 0.000074747 1/REarth

Two-line elements (TLE)

Creation date: Oct. 22, 2025, 12:06 a.m.

Reference frame: TEME

Reference center: EARTH

Epoch: Oct. 21, 2025, 7 p.m. UTC

TLE line 0: 0 SL-8 R/B

TLE line 1: 1 24955U 97052C 25294.79175336 .00000096 00000-0 74747-4 0 9999

TLE line 2: 2 24955 82.9187 140.9694 0029659 174.2266 185.9242 13.81899717415481

Live tracking on map

Real-time ground track for satellite SL-8 R/B.

In-orbit conjunctions

A list of the most updated potential collisions computed for object SL-8 R/B.

Target Orbit TCA Probability of collision Miss distance Type
NIMBUS 2 DEB SSO 2025-04-03 21:13:19 0.0001905975 58.0 (m) DEBRIS
NIMBUS 2 DEB SSO 2024-09-22 16:29:09 0.0001833941 56.0 (m) DEBRIS

Associated space launch

Navigation satellite providing location information for the Tsiklon-B navigation system

SL-8 R/B was lifted into orbit during the mission ‘Kosmos-3M | Parus 89’, on board a Kosmos-3M space rocket.

The launch took place on Sept. 23, 1997, 4:44 p.m. from 132/1 (132L).

For more information about the launch, click the button.

Launch to space Kosmos-3M | Parus 89
Kosmos-3M | Parus 89

Agency: N/A

Status: Launch Successful

Launch date: Sept. 23, 1997, 4:44 p.m. UTC

Rocket: Kosmos-3M

Launch pad: 132/1 (132L)

Location: Plesetsk Cosmodrome, Russian Federation

...

Latest news about this satellite

There are no fresh news available about this satellite. Check back as we update our databases every day.


Newsletter sign-up

Weekly statistics, charts and insights to help you stay on top of the space industry.